Mount Airy, NC

1:19 PM EDT on September 16, 2019 (GMT -0400)
Mount Airy-Surry County

Weather History for KMWK - July, 2019

Change the Weather History Date:

Sunday, July 14, 2019

  Actual Average (KINT) Record (KINT)
Temperature  
Mean Temperature 81 °F -  
Max Temperature 90 °F 85 °F 96 °F (1992)
Min Temperature 72 °F 67 °F 54 °F (1992)
Cooling Degree Days 16    
Growing Degree Days 31 (Base 50)    
Moisture  
Dew Point 69 °F    
Average Humidity 66    
Maximum Humidity 91    
Minimum Humidity 40    
Precipitation  
Precipitation 0.00 in - - ()
Sea Level Pressure  
Sea Level Pressure 30.13 in    
Wind  
Wind Speed 2 mph (NNW)    
Max Wind Speed 10 mph    
Max Gust Speed -    
Visibility 10 miles    
Events      
Averages and records for this station are not official NWS values.
T = Trace of Precipitation, MM = Missing Value Source: NWS Daily Summary

Daily Weather History Graph

Daily Weather History Graph

Search for Another Location

Airport or City:

Astronomy

Jul. 14, 2019 Rise Set
Actual Time 6:15 AM EDT 8:40 PM EDT
Civil Twilight 5:45 AM EDT 9:10 PM EDT
Nautical Twilight 5:08 AM EDT 9:47 PM EDT
Astronomical Twilight 4:27 AM EDT 10:27 PM EDT
Moon 7:01 PM EDT (7/14) 4:14 AM EDT (7/14)
Length of Visible Light 15h 25m
Length of Day
14h 25m
Waxing Gibbous, 95% of the Moon is Illuminated
Jul 14
Waxing Gibbous
Jul 16
Full
Jul 24
Last Quarter
Jul 31
New
Aug 7
First Quarter

Hourly Weather History & Observations

Time (EDT) Temp. Heat Index Dew Point Humidity Pressure Visibility Wind Dir Wind Speed Gust Speed Precip Events Conditions
12:00 AM 77.4 °F - 74.1 °F 90% 30.11 in 10.0 mi Calm Calm - N/A   Clear
12:20 AM 77.0 °F - 73.8 °F 90% 30.11 in 10.0 mi Calm Calm - N/A   Scattered Clouds
12:40 AM 76.1 °F - 73.2 °F 91% 30.10 in 10.0 mi Calm Calm - N/A   Clear
1:00 AM 75.6 °F - 72.7 °F 91% 30.10 in 10.0 mi Calm Calm - N/A   Clear
1:20 AM 75.0 °F - 72.0 °F 90% 30.09 in 10.0 mi Calm Calm - N/A   Clear
1:40 AM 75.0 °F - 71.8 °F 90% 30.08 in 10.0 mi Calm Calm - N/A   Clear
2:00 AM 74.7 °F - 71.6 °F 90% 30.08 in 10.0 mi Calm Calm - N/A   Clear
2:20 AM 74.8 °F - 71.4 °F 89% 30.09 in 10.0 mi Calm Calm - N/A   Clear
2:40 AM 73.2 °F - 70.3 °F 91% 30.09 in 10.0 mi Calm Calm - N/A   Clear
3:00 AM 73.8 °F - 70.7 °F 90% 30.08 in 10.0 mi Calm Calm - N/A   Clear
3:20 AM 72.5 °F - 69.4 °F 90% 30.09 in 10.0 mi Calm Calm - N/A   Clear
3:40 AM 72.5 °F - 69.6 °F 91% 30.09 in 10.0 mi Calm Calm - N/A   Clear
4:00 AM 73.4 °F - 70.2 °F 90% 30.09 in 10.0 mi Calm Calm - N/A   Clear
4:20 AM 75.7 °F - 70.9 °F 85% 30.10 in 10.0 mi Calm Calm - N/A   Clear
4:40 AM 75.9 °F - 71.1 °F 85% 30.09 in 10.0 mi NNW 3.5 mph - N/A   Clear
5:00 AM 75.9 °F - 71.1 °F 85% 30.10 in 10.0 mi NNW 3.5 mph - N/A   Clear
5:20 AM 76.1 °F - 71.1 °F 84% 30.10 in 10.0 mi Calm Calm - N/A   Clear
5:40 AM 76.5 °F - 71.1 °F 83% 30.10 in 10.0 mi Calm Calm - N/A   Clear
6:00 AM 77.2 °F - 71.6 °F 83% 30.11 in 10.0 mi Calm Calm - N/A   Clear
6:20 AM 74.5 °F - 70.7 °F 88% 30.12 in 10.0 mi Calm Calm - N/A   Clear
6:40 AM 73.4 °F - 70.2 °F 90% 30.13 in 10.0 mi Calm Calm - N/A   Clear
7:00 AM 73.4 °F - 70.3 °F 90% 30.14 in 10.0 mi Calm Calm - N/A   Clear
7:20 AM 76.3 °F - 72.3 °F 87% 30.14 in 10.0 mi Calm Calm - N/A   Clear
7:40 AM 78.3 °F - 72.7 °F 83% 30.14 in 10.0 mi Calm Calm - N/A   Clear
8:00 AM 80.1 °F 84.2 °F 73.0 °F 79% 30.15 in 10.0 mi NW 3.5 mph - N/A   Clear
8:20 AM 81.1 °F 85.8 °F 72.5 °F 75% 30.15 in 10.0 mi NNW 3.5 mph - N/A   Clear
8:40 AM 81.9 °F 86.6 °F 72.1 °F 72% 30.16 in 10.0 mi NW 4.6 mph - N/A   Clear
9:00 AM 82.4 °F 87.0 °F 71.4 °F 69% 30.17 in 10.0 mi WNW 4.6 mph - N/A   Clear
9:20 AM 83.3 °F 87.9 °F 71.1 °F 66% 30.17 in 10.0 mi NW 6.9 mph - N/A   Clear
9:40 AM 83.1 °F 87.1 °F 70.0 °F 64% 30.17 in 10.0 mi NW 6.9 mph - N/A   Clear
10:00 AM 83.8 °F 88.3 °F 70.3 °F 64% 30.17 in 10.0 mi NNW 10.4 mph - N/A   Clear
10:20 AM 84.4 °F 89.0 °F 70.3 °F 63% 30.18 in 10.0 mi NNW 4.6 mph - N/A   Clear
10:40 AM 84.6 °F 88.5 °F 69.4 °F 60% 30.17 in 10.0 mi NNW 6.9 mph - N/A   Clear
11:00 AM 86.4 °F 90.7 °F 69.6 °F 57% 30.18 in 10.0 mi NNW 4.6 mph - N/A   Clear
11:20 AM 87.1 °F 91.6 °F 69.4 °F 56% 30.18 in 10.0 mi North 6.9 mph - N/A   Clear
11:40 AM 86.5 °F 90.7 °F 69.1 °F 56% 30.18 in 10.0 mi North 8.1 mph - N/A   Clear
12:00 PM 87.8 °F 92.6 °F 69.8 °F 55% 30.17 in 10.0 mi North 6.9 mph - N/A   Clear
12:20 PM 88.9 °F 93.0 °F 68.7 °F 51% 30.17 in 10.0 mi North 3.5 mph - N/A   Clear
12:40 PM 88.3 °F 91.6 °F 67.3 °F 50% 30.17 in 10.0 mi North 9.2 mph - N/A   Clear
1:00 PM 89.8 °F 92.5 °F 66.4 °F 46% 30.17 in 10.0 mi North 4.6 mph - N/A   Clear
1:20 PM 89.4 °F 91.5 °F 65.3 °F 45% 30.16 in 10.0 mi North 4.6 mph - N/A   Clear
1:40 PM 90.1 °F 92.3 °F 65.8 °F 44% 30.16 in 10.0 mi North 5.8 mph - N/A   Clear
2:00 PM 90.1 °F 90.9 °F 63.0 °F 40% 30.16 in 10.0 mi NNE 6.9 mph - N/A   Clear
2:20 PM 90.1 °F 91.6 °F 64.4 °F 42% 30.15 in 10.0 mi Calm Calm - N/A   Clear
2:40 PM 90.5 °F 92.2 °F 64.8 °F 42% 30.15 in 10.0 mi NW 5.8 mph - N/A   Clear
3:00 PM 90.7 °F 92.8 °F 65.7 °F 43% 30.14 in 10.0 mi Calm Calm - N/A   Clear
3:20 PM 90.7 °F 92.4 °F 64.8 °F 42% 30.13 in 10.0 mi NNE 3.5 mph - N/A   Clear
3:40 PM 90.3 °F 92.2 °F 64.8 °F 43% 30.13 in 10.0 mi NW 3.5 mph - N/A   Clear
4:00 PM 90.5 °F 93.3 °F 66.7 °F 45% 30.13 in 10.0 mi North 3.5 mph - N/A   Clear
4:20 PM 90.9 °F 92.7 °F 65.1 °F 42% 30.12 in 10.0 mi North 3.5 mph - N/A   Clear
4:40 PM 90.7 °F 93.2 °F 66.2 °F 44% 30.12 in 10.0 mi Calm Calm - N/A   Clear
5:00 PM 90.7 °F 92.8 °F 65.3 °F 43% 30.11 in 10.0 mi Calm Calm - N/A   Clear
5:20 PM 90.7 °F 92.1 °F 64.2 °F 41% 30.11 in 10.0 mi West 4.6 mph - N/A   Clear
5:40 PM 90.9 °F 92.0 °F 63.3 °F 40% 30.11 in 10.0 mi West 3.5 mph - N/A   Clear
6:00 PM 90.5 °F 92.2 °F 64.2 °F 42% 30.10 in 10.0 mi West 5.8 mph - N/A   Clear
6:20 PM 90.3 °F 92.2 °F 64.8 °F 43% 30.10 in 10.0 mi West 3.5 mph - N/A   Clear
6:40 PM 89.6 °F 91.8 °F 65.5 °F 45% 30.10 in 10.0 mi Calm Calm - N/A   Clear
7:00 PM 88.9 °F 91.8 °F 67.1 °F 48% 30.11 in 10.0 mi Calm Calm - N/A   Clear
7:20 PM 87.8 °F 91.4 °F 68.4 °F 52% 30.11 in 10.0 mi Calm Calm - N/A   Clear
7:40 PM 86.9 °F 91.3 °F 69.3 °F 56% 30.11 in 10.0 mi Calm Calm - N/A   Clear
8:00 PM 86.4 °F 89.7 °F 67.8 °F 54% 30.11 in 10.0 mi Calm Calm - N/A   Clear
8:20 PM 85.5 °F 88.5 °F 67.6 °F 55% 30.11 in 10.0 mi Calm Calm - N/A   Clear
8:40 PM 84.0 °F 86.5 °F 66.6 °F 56% 30.12 in 10.0 mi Calm Calm - N/A   Clear
9:00 PM 82.6 °F 86.4 °F 69.6 °F 65% 30.12 in 10.0 mi Calm Calm - N/A   Clear
9:20 PM 80.6 °F 84.2 °F 70.9 °F 72% 30.13 in 10.0 mi Calm Calm - N/A   Clear
9:40 PM 81.0 °F 84.1 °F 69.3 °F 67% 30.13 in 10.0 mi Calm Calm - N/A   Clear
10:00 PM 81.5 °F 84.6 °F 68.7 °F 65% 30.14 in 10.0 mi Calm Calm - N/A   Clear
10:20 PM 80.8 °F 83.6 °F 68.4 °F 66% 30.14 in 10.0 mi NNW 3.5 mph - N/A   Clear
10:40 PM 78.1 °F - 68.7 °F 73% 30.15 in 10.0 mi Calm Calm - N/A   Clear
11:00 PM 77.4 °F - 68.9 °F 75% 30.15 in 10.0 mi Calm Calm - N/A   Clear
11:20 PM 77.5 °F - 68.5 °F 74% 30.15 in 10.0 mi Calm Calm - N/A   Clear
11:40 PM 77.4 °F - 68.5 °F 74% 30.16 in 10.0 mi Calm Calm - N/A   Clear